Regional Weather Roundup
Issued by NWS

Home | Current Version | Previous Version | Text Only | Print | Product List | Glossary On
Versions: 1 2 3 4 5 6 7 8 9 10 11 12 13 14 15 16 17 18 19 20 21 22 23 24 25 26 27 28 29 30 31 32 33 34 35 36 37 38 39 40 41 42 43 44 45 46 47 48 49 50
074
ASUS44 KJAN 191510
RWRMS

MISSISSIPPI HOURLY WEATHER ROUNDUP
NATIONAL WEATHER SERVICE JACKSON MS
900 AM CST FRI JAN 19 2018

NOTE: "FAIR: INDICATES FEW OR NO CLOUDS BELOW 12,000 FEET WITH NO
SIGNIFICANT WEATHER AND/OR OBSTRUCTIONS TO VISIBILITY.

MSZ001>002-007>008-010>013-018>021-025>028-034>036-191600-
NORTHWEST MISSISSIPPI

CITY           SKY/WX    TMP DP  RH WIND       PRES   REMARKS
BATESVILLE     FAIR      27  23  84 CALM      30.34F
CLARKSDALE     PTSUNNY   32  25  74 S8        30.33S WCI  25
CLEVELAND      CLOUDY    32  26  78 S7        30.34S WCI  26
GREENWOOD      CLOUDY    31  26  82 CALM      30.36S
GREENVILLE     CLOUDY    32  26  78 S8        30.34R WCI  25
OLIVE BRANCH   SUNNY     30  23  74 S10       30.30S WCI  21
OXFORD         FAIR      30  16  55 VRB3      30.34F
TUNICA           N/A     30  23  74 S8        30.33S WCI  23
WINONA         CLOUDY    26  21  82 CALM      30.36S
$$

MSZ003>006-009-014>017-022>024-029>033-037>039-191600-
NORTHEAST MISSISSIPPI

CITY           SKY/WX    TMP DP  RH WIND       PRES   REMARKS
ABERDEEN         N/A     28  28 100 S6        30.40R WCI  22
COLUMBUS AFB   FAIR      27  22  81 CALM      30.38R
CORINTH        FAIR      30  19  64 CALM      30.33S
GOLDN TRIANGLE FAIR      29  20  69 S5        30.38S WCI  24
STARKVILLE     FAIR      28  21  74 CALM      30.39R
TUPELO         FAIR      26  19  74 S6        30.37R WCI  19
$$

MSZ040-058-191600-
CENTRAL MISSISSIPPI

CITY           SKY/WX    TMP DP  RH WIND       PRES   REMARKS
JACKSON INTL   PTSUNNY   36  22  56 S7        30.36R WCI  30
JACKSON HAWKNS PTSUNNY   35  23  61 SE5       30.37R WCI  31
MADISON        CLOUDY    32  21  64 CALM      30.37R
MERIDIAN KEY   FAIR      30  23  75 CALM      30.40R
MERIDIAN NAS   FAIR      32  20  61 CALM      30.39S
RAYMOND          N/A     36  25  64 CALM      30.37S
VICKSBURG VKS  MOSUNNY   37  21  52 SE5       30.38S WCI  34
$$

MSZ059>079-191600-
SOUTH MISSISSIPPI

CITY           SKY/WX    TMP DP  RH WIND       PRES   REMARKS
COLUMBIA       FAIR      34  25  69 CALM      30.43S
HATTIESBURG    FAIR      33  27  78 CALM      30.41S
LAUREL         FAIR      32  27  82 CALM      30.41R
MCCOMB         FAIR      37  26  64 CALM      30.37S
NATCHEZ        CLOUDY    35  24  64 SE3       30.37S
PINE BELT      FAIR      33  26  75 CALM      30.40S
$$

MSZ080>082-191600-
COASTAL MISSISSIPPI

CITY           SKY/WX    TMP DP  RH WIND       PRES   REMARKS
BAY ST LOUIS   SUNNY     37  23  56 CALM      30.41R
BILOXI         FAIR      38  20  47 E5        30.41S WCI  35
PASCAGOULA     FAIR      38  23  55 CALM      30.42R
GULFPORT       FAIR      39  23  52 E3        30.41S
$$

LAZ007>009-015>016-023>026-191600-
NORTHEAST LOUISIANA

CITY           SKY/WX    TMP DP  RH WIND       PRES   REMARKS
BASTROP        CLOUDY    36  22  56 S6        30.35R WCI  31
TALLULAH/VBURG CLOUDY    34  25  69 S7        30.37S WCI  28
VIDALIA        CLOUDY    33  28  83 MISG      30.38R
$$




USA.gov is the U.S. government's official web portal to all federal, state and local government web resources and services.